星链-6194 (STARLINK-6194 )

导读 | 星芒AI

STARLINK-6194 是 SpaceX Starlink 项目中的一颗低轨通信卫星,属于第61批发射的星链卫星群。该卫星运行在约550公里高度的近地轨道,旨在为全球用户提供高速互联网服务。作为星链网络的一部分,STARLINK-6194 采用先进推进系统和激光通信技术,提高连接稳定性和数据传输效率。该项目致力于改善偏远地区网络覆盖,促进全球数字公平。

基本信息
目录编号:
57077
目录名称:
STARLINK-6194
国际标识:
2023-088AF
轨道中心:
EARTH
卫星名称:
星链-6194
卫星全名:
星链-6194 (STARLINK-6194 )
卫星状态:
在轨 (已飞行913 天)
发射日期:
2023-06-22 UTC
国别 :
美国 (US)
星等 :
--
轨道信息
数据来源 国际轨道数据 AOE轨道数据
星历时间 2025-12-21T19:55:39+0800
7小时前
查看轨道信息
2025-12-21T10:00:00+0800
17小时前
查看轨道信息
半长轴 6937.219km 6937.227km
偏心率 0.0001089 0.0000038
轨道倾角 43.002° 43.005°
近地点辐角 256.190° 150.741°
升交点赤经 159.676° 161.928°
平近点角 103.882° 129.251°
近地点 558.326km 559.063km
远地点 559.838km 559.117km
周期 95.838分钟 95.838分钟
每日圈数 15.025352 15.025328
详细信息
固有亮度:
5
最大亮度:
2.4
卫星平台:
Starlink v1.5
覆盖范围:
全球
运营商:
太空探索技术公司
运营商所在国:
美国
制造商(研发单位):
太空探索技术公司
制造商所在国:
美国
使用方式:
暂无
卫星简介
星链(Starlink)计划是由太空探索技术公司(SpaceX)提出的一个巨型低轨卫星互联网星座项目,计划在2019年至2024年间在太空搭建由约1.2万颗卫星组成的“星链”网络,其中1584颗将部署在地球上空550千米处的近地轨道,并从2020年开始工作。该卫星仍在工作。
2D轨道图
3D轨道图
轨道高度分析图
轨道倾角分析图
轨道综合分析图
查看轨道综合分析图